Regional Weather Roundup
Issued by NWS Little Rock, AR

Home | Current Version | Previous Version | Graphics & Text | Print | Product List | Glossary On
Versions: 1 2 3 4 5 6 7 8 9 10 11 12 13 14 15 16 17 18 19 20 21 22 23 24 25 26 27 28 29 30 31 32 33 34 35 36 37 38 39 40 41 42 43 44 45 46 47 48 49 50
000
ASUS44 KLZK 181405
RWRLZK

WEATHER ROUNDUP FOR ARKANSAS
NATIONAL WEATHER SERVICE LITTLE ROCK AR
900 AM CDT SAT APR 18 2015

NOTE: "FAIR" INDICATES FEW OR NO CLOUDS BELOW 12,000 FEET WITH NO
SIGNIFICANT WEATHER AND/OR OBSTRUCTIONS TO VISIBILITY.

ARZ001-003-010-029-181500-
NORTHWEST ARKANSAS

CITY           SKY/WX    TMP DP  RH WIND       PRES   REMARKS
FAYETTEVILLE   CLOUDY    64  61  90 W8        29.98R
FORT SMITH     LGT RAIN  64  59  83 W8        29.97R
HARRISON       CLOUDY    61  60  97 SE8       29.97R
BENTONVILLE    CLOUDY    63  55  77 W10       29.99R
ROGERS         LGT RAIN  63  61  94 W14G20    29.99R
SILOAM SPGS    CLOUDY    61  54  77 W7        30.01R
HIGHFILL       LGT RAIN  61  57  87 W9        29.98R
SPRINGDALE     CLOUDY    64  61  88 W8        30.00R
$$

ARZ004-005-016-181500-
NORTH CENTRAL ARKANSAS

CITY           SKY/WX    TMP DP  RH WIND       PRES   REMARKS
BATESVILLE     CLOUDY    63  63 100 CALM      29.97S VSB 1/2
FLIPPIN        CLOUDY    61 N/A N/A CALM      29.95S VSB 3/4
MTN HOME       CLOUDY    62  62 100 E6        29.96S FOG
$$

ARZ040-041-181500-
WEST CENTRAL ARKANSAS

CITY           SKY/WX    TMP DP  RH WIND       PRES   REMARKS
MENA           CLOUDY    64  63  94 CALM      29.96S
MOUNT IDA      CLOUDY    65  62  90 CALM      29.94R
$$

ARZ009-017-025-026-028-181500-
NORTHEAST ARKANSAS

CITY           SKY/WX    TMP DP  RH WIND       PRES   REMARKS
CORNING          N/A     63  63 100 E7        29.98S FOG
JONESBORO      CLOUDY    61  61 100 NE8       29.96F FOG
NEWPORT        CLOUDY    64  64 100 NE6       29.97S FOG
WALNUT RIDGE   CLOUDY    63  61  94 E5        29.97R
BLYTHEVILLE    CLOUDY    64  63  96 E5        29.98S
$$

ARZ022-023-033-042-044-181500-
CENTRAL ARKANSAS

CITY           SKY/WX    TMP DP  RH WIND       PRES   REMARKS
LITTLE ROCK    PTSUNNY   68  62  81 SE6       29.96R
N LITTLE ROCK  PTSUNNY   64  64  99 SE9       29.96R
JACKSONVILLE   CLOUDY    64  64 100 VRB5      29.96R FOG
SEARCY         CLOUDY    63  63 100 CALM      29.98R FOG
HOT SPRINGS    CLOUDY    66  62  87 E6        29.95R
RUSSELLVILLE   CLOUDY    65  63  93 E5        29.97R
CLINTON        CLOUDY    61  61 100 CALM      29.98R
$$

ARZ036-181500-
EAST ARKANSAS

CITY           SKY/WX    TMP DP  RH WIND       PRES   REMARKS
WEST MEMPHIS   CLOUDY    64  63  96 E6        29.94S
$$

ARZ050-053-066-070-073-181500-
SOUTHWEST ARKANSAS

CITY           SKY/WX    TMP DP  RH WIND       PRES   REMARKS
ARKADELPHIA    FAIR      68  67  96 CALM      29.95R
CAMDEN         CLOUDY    66  61  82 CALM      29.92S
TEXARKANA      CLOUDY    68  64  87 NE7       29.92R
EL DORADO      CLOUDY    66  63  90 E5        29.92R
DE QUEEN       CLOUDY    65  64  97 E6        29.91S
$$

ARZ056-057-069-181500-
SOUTHEAST ARKANSAS

CITY           SKY/WX    TMP DP  RH WIND       PRES   REMARKS
PINE BLUFF     PTSUNNY   67  63  87 E8        29.96R
STUTTGART      CLOUDY    64  61  88 E6        29.97R
MONTICELLO     CLOUDY    66  64  93 E6        29.93R

$$




USA.gov is the U.S. government's official web portal to all federal, state and local government web resources and services.